Previsão horária em Jureczkowa

Hoje, 22 Junho, Terça-feira

Tempo Temperatura Precipitação Vento Pressão Humidade
00:00 +18°C° 0 mm 2 m/s 716 mmHg 91%
01:00 +18°C° 0 mm 2 m/s 716 mmHg 91%
02:00 +17°C° 0 mm 2 m/s 716 mmHg 92%
03:00 +17°C° 0 mm 2 m/s 716 mmHg 92%
04:00 +17°C° 0 mm 2 m/s 716 mmHg 92%
05:00 +17°C° 0 mm 2 m/s 716 mmHg 91%
06:00 +19°C° 0 mm 2 m/s 717 mmHg 85%
07:00 +22°C° 0 mm 1 m/s 717 mmHg 78%
08:00 +24°C° 0 mm 1 m/s 717 mmHg 71%
09:00 +26°C° 0 mm 1 m/s 717 mmHg 65%
10:00 +27°C° 0 mm 1 m/s 718 mmHg 59%
11:00 +29°C° 0 mm 1 m/s 718 mmHg 53%
12:00 +29°C° 0 mm 2 m/s 718 mmHg 51%
13:00 +30°C° 0 mm 2 m/s 718 mmHg 50%
14:00 +30°C° 0 mm 3 m/s 718 mmHg 49%
15:00 +29°C° 0.2 mm 2 m/s 718 mmHg 57%
16:00 +27°C° 0.2 mm 2 m/s 718 mmHg 66%
17:00 +26°C° 0.2 mm 2 m/s 718 mmHg 74%
18:00 +25°C° 0.6 mm 2 m/s 718 mmHg 78%
19:00 +24°C° 0.6 mm 1 m/s 718 mmHg 82%
20:00 +23°C° 0.6 mm 1 m/s 718 mmHg 85%
21:00 +22°C° 0.1 mm 1 m/s 718 mmHg 87%
22:00 +22°C° 0.1 mm 1 m/s 718 mmHg 88%
23:00 +21°C° 0.1 mm 1 m/s 718 mmHg 90%

Amanhã, 23 Junho, Quarta-feira

Tempo Temperatura Precipitação Vento Pressão Humidade
00:00 +21°C° 0 mm 1 m/s 718 mmHg 90%
01:00 +20°C° 0 mm 1 m/s 718 mmHg 90%
02:00 +20°C° 0 mm 1 m/s 718 mmHg 91%
03:00 +20°C° 0 mm 1 m/s 718 mmHg 90%
04:00 +20°C° 0 mm 1 m/s 718 mmHg 90%
05:00 +20°C° 0 mm 1 m/s 719 mmHg 90%
06:00 +19°C° 0 mm 0 m/s 719 mmHg 86%
07:00 +21°C° 0 mm 0 m/s 719 mmHg 82%
08:00 +22°C° 0 mm 0 m/s 720 mmHg 79%
09:00 +25°C° 0.4 mm 1 m/s 720 mmHg 77%
10:00 +26°C° 0.4 mm 1 m/s 720 mmHg 75%
11:00 +27°C° 0.4 mm 1 m/s 721 mmHg 74%
12:00 +27°C° 0.6 mm 1 m/s 721 mmHg 70%
13:00 +28°C° 0.6 mm 1 m/s 721 mmHg 67%
14:00 +29°C° 0.6 mm 1 m/s 721 mmHg 63%
15:00 +29°C° 0.2 mm 1 m/s 721 mmHg 63%
16:00 +29°C° 0.2 mm 1 m/s 721 mmHg 63%
17:00 +29°C° 0.2 mm 1 m/s 721 mmHg 62%
18:00 +27°C° 0.7 mm 1 m/s 721 mmHg 70%
19:00 +25°C° 0.7 mm 1 m/s 721 mmHg 77%
20:00 +22°C° 0.7 mm 0 m/s 721 mmHg 84%
21:00 +23°C° 0.5 mm 1 m/s 721 mmHg 87%
22:00 +22°C° 0.5 mm 1 m/s 721 mmHg 90%
23:00 +21°C° 0.5 mm 1 m/s 721 mmHg 93%

Depois de amanhã, 24 Junho, Quinta-feira

Tempo Temperatura Precipitação Vento Pressão Humidade
00:00 +20°C° 0.3 mm 1 m/s 721 mmHg 94%
01:00 +20°C° 0.3 mm 1 m/s 721 mmHg 95%
02:00 +20°C° 0.3 mm 1 m/s 721 mmHg 96%
03:00 +20°C° 0 mm 1 m/s 721 mmHg 96%
04:00 +18°C° 0 mm 0 m/s 721 mmHg 96%
05:00 +18°C° 0 mm 0 m/s 721 mmHg 96%
06:00 +19°C° 0 mm 0 m/s 721 mmHg 92%
07:00 +21°C° 0 mm 0 m/s 722 mmHg 88%
08:00 +22°C° 0 mm 0 m/s 722 mmHg 84%
09:00 +24°C° 0.1 mm 0 m/s 722 mmHg 77%
10:00 +26°C° 0.1 mm 0 m/s 722 mmHg 69%
11:00 +29°C° 0.1 mm 1 m/s 722 mmHg 62%
12:00 +30°C° 0.3 mm 1 m/s 722 mmHg 57%
13:00 +31°C° 0.3 mm 1 m/s 722 mmHg 53%
14:00 +32°C° 0.3 mm 1 m/s 722 mmHg 48%
15:00 +31°C° 0.3 mm 1 m/s 721 mmHg 54%
16:00 +30°C° 0.3 mm 2 m/s 721 mmHg 59%
17:00 +29°C° 0.3 mm 2 m/s 721 mmHg 65%
18:00 +28°C° 0.1 mm 2 m/s 721 mmHg 71%
19:00 +27°C° 0.1 mm 2 m/s 721 mmHg 76%
20:00 +25°C° 0.1 mm 2 m/s 720 mmHg 82%
21:00 +24°C° 0 mm 2 m/s 720 mmHg 82%
22:00 +23°C° 0 mm 2 m/s 720 mmHg 83%
23:00 +23°C° 0 mm 2 m/s 720 mmHg 84%

25 Junho, Sexta-feira

Tempo Temperatura Precipitação Vento Pressão Humidade
00:00 +21°C° 0 mm 2 m/s 720 mmHg 83%
01:00 +21°C° 0 mm 2 m/s 719 mmHg 83%
02:00 +21°C° 0 mm 2 m/s 719 mmHg 82%
03:00 +21°C° 0 mm 2 m/s 719 mmHg 82%
04:00 +21°C° 0 mm 2 m/s 719 mmHg 83%
05:00 +21°C° 0 mm 2 m/s 719 mmHg 83%
06:00 +23°C° 0.1 mm 2 m/s 719 mmHg 79%
07:00 +24°C° 0.1 mm 2 m/s 719 mmHg 75%
08:00 +26°C° 0.1 mm 3 m/s 719 mmHg 71%
09:00 +28°C° 0 mm 3 m/s 719 mmHg 62%
10:00 +30°C° 0 mm 4 m/s 719 mmHg 53%
11:00 +33°C° 0 mm 5 m/s 719 mmHg 44%
12:00 +33°C° 0 mm 5 m/s 719 mmHg 43%
13:00 +33°C° 0 mm 5 m/s 720 mmHg 43%
14:00 +33°C° 0 mm 4 m/s 720 mmHg 42%
15:00 +32°C° 0.1 mm 4 m/s 720 mmHg 47%
16:00 +30°C° 0.1 mm 4 m/s 720 mmHg 52%
17:00 +30°C° 0.1 mm 4 m/s 720 mmHg 56%
18:00 +27°C° 0.3 mm 3 m/s 720 mmHg 67%
19:00 +25°C° 0.3 mm 3 m/s 719 mmHg 78%
20:00 +23°C° 0.3 mm 2 m/s 719 mmHg 89%
21:00 +21°C° 0.1 mm 2 m/s 720 mmHg 92%
22:00 +19°C° 0.1 mm 2 m/s 720 mmHg 94%
23:00 +19°C° 0.1 mm 1 m/s 720 mmHg 96%

26 Junho, Sábado

Tempo Temperatura Precipitação Vento Pressão Humidade
00:00 +19°C° 0 mm 1 m/s 720 mmHg 96%
01:00 +18°C° 0 mm 1 m/s 721 mmHg 96%
02:00 +18°C° 0 mm 1 m/s 721 mmHg 97%
03:00 +16°C° 0 mm 1 m/s 721 mmHg 97%
04:00 +16°C° 0 mm 1 m/s 721 mmHg 98%
05:00 +15°C° 0 mm 0 m/s 721 mmHg 98%
06:00 +18°C° 0 mm 1 m/s 721 mmHg 94%
07:00 +18°C° 0 mm 1 m/s 721 mmHg 91%
08:00 +18°C° 0 mm 2 m/s 722 mmHg 87%
09:00 +19°C° 0 mm 2 m/s 722 mmHg 81%
10:00 +20°C° 0 mm 2 m/s 722 mmHg 75%
11:00 +21°C° 0 mm 2 m/s 722 mmHg 70%
12:00 +23°C° 0.2 mm 2 m/s 722 mmHg 68%
13:00 +23°C° 0.2 mm 2 m/s 722 mmHg 67%
14:00 +24°C° 0.2 mm 2 m/s 722 mmHg 66%
15:00 +24°C° 0.2 mm 2 m/s 721 mmHg 66%
16:00 +24°C° 0.2 mm 2 m/s 721 mmHg 67%
17:00 +24°C° 0.2 mm 2 m/s 721 mmHg 67%
18:00 +23°C° 0.1 mm 2 m/s 721 mmHg 73%
19:00 +21°C° 0.1 mm 2 m/s 721 mmHg 79%
20:00 +20°C° 0.1 mm 2 m/s 721 mmHg 86%
21:00 +19°C° 0.6 mm 2 m/s 721 mmHg 89%
22:00 +19°C° 0.6 mm 1 m/s 721 mmHg 91%
23:00 +19°C° 0.6 mm 1 m/s 720 mmHg 94%

27 Junho, Domingo

Tempo Temperatura Precipitação Vento Pressão Humidade
00:00 +18°C° 0.5 mm 1 m/s 720 mmHg 95%
01:00 +18°C° 0.5 mm 1 m/s 720 mmHg 96%
02:00 +18°C° 0.5 mm 1 m/s 720 mmHg 97%
03:00 +18°C° 0.5 mm 1 m/s 720 mmHg 97%
04:00 +18°C° 0.5 mm 1 m/s 720 mmHg 98%
05:00 +16°C° 0.5 mm 1 m/s 720 mmHg 99%
06:00 +16°C° 0.3 mm 1 m/s 721 mmHg 98%
07:00 +17°C° 0.3 mm 2 m/s 721 mmHg 98%
08:00 +17°C° 0.3 mm 2 m/s 721 mmHg 97%
09:00 +17°C° 0.3 mm 2 m/s 721 mmHg 97%
10:00 +17°C° 0.3 mm 2 m/s 722 mmHg 96%
11:00 +17°C° 0.3 mm 2 m/s 722 mmHg 96%
12:00 +17°C° 0.3 mm 2 m/s 722 mmHg 96%
13:00 +17°C° 0.3 mm 2 m/s 722 mmHg 96%
14:00 +17°C° 0.3 mm 2 m/s 722 mmHg 96%
15:00 +17°C° 0.1 mm 2 m/s 722 mmHg 94%
16:00 +17°C° 0.1 mm 2 m/s 722 mmHg 93%
17:00 +19°C° 0.1 mm 1 m/s 722 mmHg 91%
18:00 +18°C° 0 mm 1 m/s 722 mmHg 92%
19:00 +18°C° 0 mm 1 m/s 722 mmHg 94%
20:00 +16°C° 0 mm 0 m/s 722 mmHg 95%
21:00 +15°C° 0 mm 0 m/s 722 mmHg 95%
22:00 +15°C° 0 mm 0 m/s 722 mmHg 96%
23:00 +14°C° 0 mm 0 m/s 722 mmHg 96%
Mostrar mais

Necessitamos do seu Consentimento

A Meteoprog e os seus Fornecedores de Serviços podem armazenar e aceder a dados pessoais como cookies, identificadores do dispositivo ou outras tecnologias semelhantes existentes no seu dispositivo e processar estes dados para personalizar conteúdos e anúncios, assim como funcionalidades nas redes sociais e análise de tráfego.

  • Armazenar e/ou aceder a informações no seu dispositivo

    Os cookies, identificadores do dispositivo ou outras informações podem ser armazenados ou acedidos no seu dispositivo, para os fins acima indicados.

  • Anúncios e conteúdos personalizados, medição de anúncios e conteúdos, dados sobre o público-alvo e desenvolvimento de produtos

    Os anúncios e os conteúdos podem ser personalizados com base num perfil. Podem ser adicionados dados adicionais para uma maior personalização dos anúncios e dos conteúdos. A eficácia dos anúncios e dos conteúdos pode ser medida. Podem ser obtidas informações sobre o público que visualizou os anúncios e os conteúdos. Estes dados podem ser usados para desenvolver ou melhorar sistemas, softwares ou a experiência do utilizador.

Ao clicar em "Eu concordo”, permitirá o uso de cookies, identificadores do dispositivo e web beacons mencionados ou outras tecnologias semelhantes. As configurações do navegador do seu dispositivo podem ser alteradas.

Para certos fins, podem ser invocados interesses legítimos ao invés de consentimento. Pode ler mais informação sobre este assunto na nossa Política de Privacidade e Cookies.